Погода в Майкопе

Погода в Майкопе : погода сейчас, прогноз погоды и архив. Всё, что Вы хотите узнать о погоде в Майкопе!

Поиск расширенной информации на нашем сайте:

Другие новости

Новости СМИ2

Главная страница сайта

Новости сайта

02.10.2013

Напоминаем, что на нашем новом сайте вы можете получить высокодетализированные прогнозы погоды по пунктам России, СНГ и мира (включающие важные для авиации метеовеличины, такие как направление и скорость ветра, видимость, явления погоды, количество и форма облачности, нижняя и верхняя граница облачности), а также ознакомиться с разнообразными материалами по авиационной метеорологии и подборкой полезных ссылок на эту тему.

Сайт Метеоцентр.Азия посвящён разработке технологий оптимизации авиаметеорологического обслуживания, включая проектирование и перспективное создание нескольких автоматизированных авиаметеорологических систем:
- система выпуска высокодетальных прогностических карт явлений погоды для нижнего воздушного пространства по России и ближнему зарубежью;
- система верификации прогнозов TAF (выпускаемых синоптиками официальных АМСГ РФ и ближнего зарубежья) и AUTOTAF (выпускаемых сайтом Метеоцентр.Азия) - выявление ошибок, онлайн-сопоставление с фактической погодой METAR, автоматическое внесение коррективов в прогнозы при резком отклонении фактической погоды от прогноза, подсчёт оправдываемости прогнозов по элементам и в целом;
- система обработки, анализа и отображения авиаметеорологической информации для применения провайдерами метеорологической информации.

Рекомендуем: Права станут золотыми стоимость обучения обучение на права.

Погода в Майкопе - сегодня

Время (UTC), дата Ветер
(°,м/с) 
Видим.   Явления Облачность Т
(°С)
Тd
(°С)
f(%) Тe
(°С)
Pmin
(гПа)
dP
(гПа)
Po
(мм)
O2
(г/м3)
Тmin Tmax R s Состояние
почвы
06 17.02.17 140 (ЮВ) 20000 м    ясно 
-9.5 -13.6 72 -12  1032.9  0.5  753  316           
09 17.02.17 020 (С) 20000 м    ясно 
-3.6 -11.5 54 -6  1031.5  -0.7  753  308           
12 17.02.17 010 (С) 20000 м    ясно 
-4 -9.7 65 -7  1030.7  -0.8  752  308           
15 17.02.17 040 (СВ) 20000 м    ясно 
-6.8 -11.7 68 -6  1030.8  -0.2  752  312    -3.4       
18 17.02.17 тихо ()   20000 м    ясно 
-10.4 -12.2 87 -10  1031.5  0.3  752  316           
21 17.02.17 150 (ЮВ) 20000 м    ясно 
-7.2 -10.6 77 -10  1030  -1.1  751  312           
00 18.02.17 150 (ЮВ) 20000 м    ясно 
-7.8 -11 78 -11  1030.1  0.1  751  313           
03 18.02.17 140 (ЮВ) 20000 м    ясно 
-8.2 -11.4 78 -11  1029.8  -0.4  751  313  -11.6      10  равномерный
сухой снег
100% 
06 18.02.17 150 (ЮВ) 20000 м    3/0 верхняя 
[Ci fib]
-5.7 -10.8 67 -8  1029.1  -0.4  751  310           
09 18.02.17 350 (С) 20000 м    9/0 верхняя 
[Ci sp]
+2.4 -8.4 45 +3  1027.3  -0.9  750  300           
12 18.02.17 040 (СВ) 20000 м    9/0 средняя, верхняя 
[Ac trans|Ci sp]
+2.5 -6.3 52 +2  1026.2  -1.1  749  300           
15 18.02.17 070 (В) 20000 м    10/0 средняя, верхняя 
[Ac trans|Ci sp]
+0.6 -5 66 1026.7  0.3  749  302    +3.1       
18 18.02.17 160 (Ю) 20000 м    6/0 верхняя 
[Ci sp]
-2.8 -6.4 76 -2  1027.3  0.2  750  306           
21 18.02.17 160 (Ю) 20000 м    3/0 верхняя 
[Ci sp]
-3.4 -6.6 78 -5  1027.9  0.5  750  307           
00 19.02.17 140 (ЮВ) 20000 м    3/0 верхняя 
[Ci sp]
-4 -7.5 77 -6  1028.1  0.2  750  308           
03 19.02.17 140 (ЮВ) 20000 м    4/0 средняя, верхняя 
[Ac trans|Ci sp]
-4.6 -7.8 78 -6  1029.1  0.9  751  308  -4.8      равномерный
мокрый или
старый снег
100% 
06 19.02.17 140 (ЮВ) 20000 м    3/0 верхняя 
[Ci sp]
-1.8 -8.1 62 -4  1030.2  1.3  752  306           
09 19.02.17 340 (С) 20000 м    3/0 верхняя 
[Ci sp]
+6.8 -8.8 32 +8  1029.4  0.1  752  296           
12 19.02.17 060 (СВ) 20000 м    9/0 верхняя 
[Ci sp]
+7.2 -8.4 32 +6  1028.6  -0.8  751  296           
15 19.02.17 040 (СВ) 20000 м    9/0 средняя, верхняя 
[Ac trans|Ci sp]
+3.1 -5 55 +4  1029.3  0.3  751  300    +7.8       
18 19.02.17 170 (Ю) 20000 м    10/0 средняя, верхняя 
[Ac trans|Ci sp]
+0.6 -5.1 66 +1  1029.2  -0.4  751  303           
21 19.02.17 150 (ЮВ) 20000 м    10/3 1000 м средняя 
[Sc|Ac As]
+2.3 -4.3 62 +1  1028.2  -0.7  751  300           
00 20.02.17 150 (ЮВ) 20000 м    10/3 1000 м верхняя 
[Sc|Ci sp]
+1.5 -4.1 66 1027.6  -0.7  750  301           
03 20.02.17 150 (ЮВ) 20000 м    10/0 средняя, верхняя 
[Ac trans|Ci sp]
+1.2 -4.3 67 1027.2  -0.4  750  301  -0.9      мокрый или
старый снег
50-90% 
06 20.02.17 150 (ЮВ) 20000 м    9/0 средняя, верхняя 
[Ac As|Ci sp]
+2.1 -4.4 62 +1  1026.7  -0.4  749  300           
Время (UTC), дата Ветер
(°,м/с) 
Видим.   Явления Облачность Т
(°С)
Тd
(°С)
f(%) Тe
(°С)
Pmin
(гПа)
dP
(гПа)
Po
(мм)
O2
(г/м3)
Тmin Tmax R s Состояние
почвы

Для получения пояснительной информации подведите курсор к названию столбца.

ПОГОДА в Майкопе - архив

Всё, что Вы хотите узнать о погоде в Майкопе - удобно и подробно!

Выберите нужную дату (начиная с 1 января 2015* года) и нажмите кнопку "Найти".
Будут отображены архивные сводки погоды по пункту Майкоп, начиная с указанной даты.


Отображать данные в формате CSV (для использования в таблицах Excel)


Внимание! Наш архив погоды предназначен исключительно для личного некоммерческого использования в познавательных целях. Если Вам необходимы официальные справки о состоянии погоды (для производственных, юридических, коммерческих и т.п. целей), обращайтесь в органы Росгидромета.

*Примечание: данная дата относится к архиву по метеостанциям СССР (Россия, СНГ, Балтия).
Архив по метеостанциям Зарубежной Европы и Азии (кроме Китая) хранится 10 дней, по другим регионам земного шара (Китай, Африка, Америка, Австралия, Океания) - 1 день.

Майкоп - район местоположения метеостанции


Название, широта, долгота, высота метеостанции:
Майкоп 44.7°ш. 40.1°д. 207 м над ур. моря [Российская Федерация]

Дополнительная информация

В oтличие oт бoльшинства пoгoдных сайтoв мы публикуем пoдрoбную метеoинфoрмацию в детальнoм прoфессиoнальнoм фoрмате.

Характеристики температуры и влажнoсти вoздуха измеряются на высoте 2 м в тени вдали oт зданий и деревьев.
Скoрoсть ветра измеряется на высoте 10 м (на урoвне рoста челoвека скoрoсть ветра ниже в 1.5-2 раза). Если метеoстанция нахoдится в гoрoде или в лесу, тo скoрoсть ветра занижена на 2-4 м/с пo сравнению с oткрытым местoм. Скoрoсть ветра над акватoриями крупных рек и oзёр, а также на вершинах хoлмoв на 2-5 м/с выше, чем в oбычных услoвиях.
Атмoсфернoе давление в разных тoчках местнoсти мoжет значительнo oтличаться oт давления на метеoстанции, в зависимoсти oт услoвий рельефа (при пoдъёме на 10 м давление пoнижается примернo на 1 мм рт.ст.).